[[{"header":{"parameterUnit":"m.s-1","parameterCategory":1,"la1":30.2991,"la2":30.254,"lo1":-89.0895,"lo2":-89.0444,"dx":0.0017,"dy":0.0017,"nx":28,"ny":28,"refTime":"2022-11-04T21:00:00:Z","depth":0,"parameterNumber":2,"parameterNumberName":"U-component_of_WINDS"},"data":[0,0,0,0,0,0,0,0,0,0,0,0,0,0,0,0,0,0,0,0,0,0,0,0,0,0,0,0,0,0,0,0,0,0,0,0,0,0,0,0,0,0,0,0,0,0,0,0,0,0,0,0,0,0,0,0,0,0,-3.321,-3.3211,0,-3.3288,-3.3289,-3.3289,-3.3305,-3.3304,-3.3303,-3.3303,-3.338,-3.3382,-3.3385,0,0,0,0,0,0,0,0,0,0,0,0,0,-3.3074,-3.3076,-3.321,-3.3211,-3.3212,-3.3288,-3.3289,-3.329,-3.3305,-3.3304,-3.3303,-3.3303,-3.3379,-3.3382,-3.3385,0,0,0,0,0,0,0,0,0,0,0,0,0,-3.314,-3.3077,-3.321,-3.3229,-3.3231,-3.3287,-3.3289,-3.329,-3.3305,-3.3304,-3.3303,-3.3302,-3.3378,-3.3382,-3.3386,-3.3428,0,0,-3.3398,-3.3399,0,0,0,0,0,0,0,0,-3.3136,-3.3145,-3.3225,-3.3228,-3.323,-3.3286,-3.3269,-3.3336,-3.3305,-3.3277,-3.3303,-3.3302,-3.3349,-3.3355,-3.3372,-3.3431,-3.3435,-3.3398,-3.34,-3.3402,-3.3403,0,0,0,0,0,0,0,-3.3132,-3.3142,-3.3241,-3.3226,-3.3229,-3.3233,-3.3241,-3.3282,-3.3317,-3.3279,-3.3281,-3.329,-3.335,-3.3368,-3.3374,-3.3436,-3.3398,-3.3401,-3.3404,-3.3405,-3.3534,-3.3535,0,0,0,0,0,0,-3.3124,-3.3138,-3.3238,-3.3243,-3.318,-3.3236,-3.3245,-3.3269,-3.3317,-3.3323,-3.329,-3.329,-3.3362,-3.3369,-3.3376,-3.3429,-3.3402,-3.3406,-3.3408,-3.3533,-3.3534,-3.3536,0,0,0,0,0,0,-3.3121,-3.3133,-3.3235,-3.3191,-3.3204,-3.3239,-3.3265,-3.3271,-3.3288,-3.3325,-3.3331,-3.3302,-3.3361,-3.3371,-3.3415,-3.3431,-3.3407,-3.3411,-3.3532,-3.3534,-3.3535,-3.3533,0,0,0,0,0,0,-3.3117,-3.3132,-3.3148,-3.3191,-3.3207,-3.3273,-3.3266,-3.3273,-3.3295,-3.3296,-3.3337,-3.3343,-3.3361,-3.3409,-3.3419,-3.3436,-3.3414,-3.3531,-3.3533,-3.3535,-3.3532,-3.3535,-3.3537,0,0,0,0,0,-3.3112,-3.3144,-3.3149,-3.3161,-3.3228,-3.3274,-3.3282,-3.3303,-3.3297,-3.3313,-3.3337,-3.3342,-3.3429,-3.3414,-3.3425,-3.3444,-3.353,-3.3532,-3.3534,-3.3531,-3.3534,-3.3537,0,0,0,0,0,0,-3.3101,-3.315,-3.3156,-3.3203,-3.3234,-3.3276,-3.3298,-3.3306,-3.3339,-3.3338,-3.3361,-3.3371,-3.3413,-3.3433,-3.3416,-3.3487,-3.3479,-3.3483,-3.3472,-3.3476,-3.3478,-3.3471,-3.3417,0,0,0,0,0,-3.3104,-3.3138,-3.3179,-3.3216,-3.3232,-3.3262,-3.3283,-3.3296,-3.3329,-3.3342,-3.3369,-3.34,-3.3435,-3.3456,-3.349,-3.3536,-3.3545,-3.3554,-3.3557,-3.3559,-3.3562,-3.3587,-3.3592,-3.3544,-3.3544,-3.3544,0,0,-3.311,-3.3141,-3.3161,-3.3214,-3.324,-3.3274,-3.3273,-3.3308,-3.3334,-3.3347,-3.339,-3.3412,-3.3448,-3.3493,-3.3515,-3.3511,-3.3578,-3.3562,-3.3563,-3.3565,-3.359,-3.3595,-3.3599,-3.3545,-3.3545,-3.3545,0,0,-3.3139,-3.3166,-3.32,-3.3227,-3.3266,-3.3287,-3.3295,-3.3336,-3.3351,-3.3395,-3.3407,-3.3437,-3.3495,-3.3521,-3.3542,-3.3582,-3.3588,-3.3592,-3.3604,-3.3629,-3.3633,-3.3636,-3.365,-3.3654,-3.3596,-3.3596,-3.3596,0,-3.3141,-3.3193,-3.3217,-3.3252,-3.3275,-3.3291,-3.3325,-3.3349,-3.3397,-3.3413,-3.3409,-3.3483,-3.3509,-3.356,-3.357,-3.3587,-3.3597,-3.3587,-3.363,-3.3634,-3.3638,-3.3651,-3.3656,-3.3596,-3.3596,-3.3596,-3.3596,0,-3.3194,-3.323,-3.3253,-3.33,-3.3326,-3.336,-3.3389,-3.3412,-3.3424,-3.3445,-3.349,-3.3522,-3.3562,-3.3576,-3.3587,-3.3629,-3.3625,-3.3626,-3.3617,-3.3642,-3.3655,-3.366,-3.3596,-3.3596,-3.3596,-3.3596,0,0,-3.3215,-3.3277,-3.3284,-3.3306,-3.3352,-3.338,-3.3415,-3.3456,-3.3475,-3.3509,-3.3538,-3.3589,-3.359,-3.3613,-3.3628,-3.365,-3.3679,-3.3648,-3.3649,-3.3651,-3.3726,-3.3725,-3.373,-3.3684,-3.3685,-3.3686,-3.3723,0,-3.3249,-3.3313,-3.3336,-3.3389,-3.3422,-3.3438,-3.347,-3.3501,-3.3522,-3.3552,-3.3575,-3.361,-3.3609,-3.3624,-3.3646,-3.3671,-3.3694,-3.3669,-3.3711,-3.3712,-3.37,-3.3737,-3.3735,-3.3768,-3.3728,-3.3729,-3.373,0,-3.3295,-3.333,-3.3387,-3.3429,-3.3444,-3.3471,-3.351,-3.354,-3.3576,-3.359,-3.3617,-3.3631,-3.3668,-3.3659,-3.3711,-3.3693,-3.3713,-3.3727,-3.3729,-3.3732,-3.3721,-3.374,-3.378,-3.3784,-3.3738,-3.3737,-3.3737,0,-3.3304,-3.3365,-3.3407,-3.3426,-3.3476,-3.3495,-3.3517,-3.3552,-3.3575,-3.3609,-3.3625,-3.3663,-3.3683,-3.3712,-3.3736,-3.3727,-3.3786,-3.3779,-3.3797,-3.3796,-3.3807,-3.3806,-3.3849,-3.3822,-3.3822,-3.3822,-3.3822,0,-3.3338,-3.3372,-3.3412,-3.3437,-3.3476,-3.3502,-3.3539,-3.3562,-3.3593,-3.3623,-3.364,-3.3667,-3.3697,-3.3729,-3.3748,-3.3788,-3.3797,-3.3809,-3.3813,-3.3806,-3.3805,-3.3818,-3.3815,-3.3823,-3.3823,-3.3822,-3.3822,0,-3.3353,-3.3382,-3.3428,-3.3473,-3.3485,-3.3511,-3.3549,-3.3574,-3.3597,-3.3634,-3.3645,-3.3679,-3.3718,-3.3745,-3.3793,-3.3806,-3.3849,-3.3853,-3.3836,-3.3838,-3.3855,-3.3853,-3.3907,-3.3915,-3.3884,-3.3884,-3.3884,0,-3.3372,-3.3399,-3.3446,-3.3468,-3.349,-3.3525,-3.3549,-3.3576,-3.36,-3.3644,-3.3664,-3.3704,-3.3736,-3.3797,-3.3826,-3.3863,-3.3868,-3.3885,-3.3874,-3.3867,-3.3867,-3.3865,-3.3867,-3.3886,-3.3886,-3.3886,-3.3886,0,-3.3402,-3.3416,-3.345,-3.3489,-3.3518,-3.355,-3.3582,-3.3599,-3.3632,-3.3659,-3.3698,-3.3724,-3.3775,-3.3813,-3.3854,-3.3876,-3.3886,-3.389,-3.3896,-3.3889,-3.3877,-3.3883,-3.3839,-3.3888,-3.3888,-3.3888,-3.3888,-3.3887,-3.3419,-3.3444,-3.3481,-3.3519,-3.3547,-3.3577,-3.3603,-3.3629,-3.3663,-3.3706,-3.3721,-3.3762,-3.3798,-3.3854,-3.3877,-3.3909,-3.3908,-3.3917,-3.3919,-3.392,-3.3919,-3.3874,-3.3916,-3.3916,-3.3916,-3.3916,-3.3916,0,-3.345,-3.3475,-3.351,-3.3555,-3.3585,-3.3594,-3.363,-3.3654,-3.369,-3.3723,-3.3756,-3.3802,-3.384,-3.3873,-3.3912,-3.3932,-3.3937,-3.3941,-3.3939,-3.3944,-3.3919,-3.3909,-3.3936,-3.3936,-3.3936,-3.3936,-3.3936,-3.3936,-3.3469,-3.351,-3.3528,-3.3583,-3.3609,-3.3649,-3.3669,-3.3697,-3.3724,-3.3774,-3.3806,-3.3828,-3.3861,-3.3904,-3.3939,-3.3948,-3.3961,-3.3963,-3.3973,-3.3948,-3.3946,-3.3943,-3.3934,-3.3966,-3.3966,-3.3995,-3.3995,-3.3996]},{"header":{"parameterUnit":"m.s-1","parameterCategory":1,"la1":30.2991,"la2":30.254,"lo1":-89.0895,"lo2":-89.0444,"dx":0.0017,"dy":0.0017,"nx":28,"ny":28,"refTime":"2022-11-04T21:00:00:Z","depth":0,"parameterNumber":3,"parameterNumberName":"V-component_of_WINDS"},"data":[0,0,0,0,0,0,0,0,0,0,0,0,0,0,0,0,0,0,0,0,0,0,0,0,0,0,0,0,0,0,0,0,0,0,0,0,0,0,0,0,0,0,0,0,0,0,0,0,0,0,0,0,0,0,0,0,0,0,4.6616,4.6617,0,4.6728,4.6729,4.6731,4.6743,4.6742,4.6741,4.674,4.6851,4.6855,4.6859,0,0,0,0,0,0,0,0,0,0,0,0,0,4.6412,4.6416,4.6616,4.6617,4.6619,4.6728,4.673,4.6731,4.6743,4.6742,4.674,4.6739,4.685,4.6855,4.6859,0,0,0,0,0,0,0,0,0,0,0,0,0,4.651,4.6417,4.6616,4.6638,4.6641,4.6728,4.673,4.6731,4.6743,4.6742,4.674,4.6738,4.6848,4.6854,4.686,4.6931,0,0,4.6879,4.6881,0,0,0,0,0,0,0,0,4.6505,4.6518,4.6633,4.6637,4.664,4.672,4.6699,4.6798,4.6744,4.6704,4.674,4.6738,4.6809,4.6818,4.6843,4.6936,4.6941,4.6879,4.6883,4.6885,4.6887,0,0,0,0,0,0,0,4.6498,4.6513,4.666,4.6635,4.6639,4.6643,4.6655,4.6718,4.6765,4.6708,4.6709,4.6722,4.681,4.6837,4.6845,4.6943,4.6879,4.6884,4.6888,4.689,4.7105,4.7107,0,0,0,0,0,0,4.6487,4.6507,4.6657,4.6664,4.6567,4.6648,4.6661,4.6696,4.6764,4.6773,4.6724,4.6722,4.6827,4.6838,4.6849,4.694,4.6885,4.6891,4.6894,4.7103,4.7106,4.7108,0,0,0,0,0,0,4.6483,4.65,4.6652,4.6586,4.6605,4.6653,4.6692,4.6699,4.6726,4.6776,4.6784,4.6742,4.6826,4.6841,4.6912,4.6944,4.6894,4.6899,4.7101,4.7104,4.7107,4.712,0,0,0,0,0,0,4.6477,4.6499,4.6526,4.6586,4.6609,4.6713,4.6694,4.6703,4.6736,4.6736,4.6795,4.6804,4.6826,4.6903,4.6918,4.6951,4.6904,4.7098,4.7102,4.7106,4.7117,4.7123,4.7129,0,0,0,0,0,4.6469,4.6524,4.6527,4.6545,4.6644,4.6715,4.6728,4.6753,4.6739,4.6767,4.68,4.6802,4.6938,4.691,4.6927,4.6963,4.7096,4.7101,4.7105,4.7114,4.7122,4.7129,0,0,0,0,0,0,4.6463,4.6532,4.6536,4.6612,4.6658,4.6717,4.6753,4.676,4.681,4.6807,4.6836,4.685,4.6921,4.6948,4.6916,4.7037,4.7015,4.7024,4.7017,4.7024,4.703,4.7022,4.6909,0,0,0,0,0,4.6471,4.6524,4.658,4.6641,4.6664,4.6705,4.6736,4.6753,4.6801,4.682,4.6858,4.6904,4.6958,4.6992,4.7044,4.7121,4.7136,4.7154,4.716,4.7164,4.7172,4.7218,4.7228,4.7123,4.7123,4.7123,0,0,4.6487,4.6531,4.6562,4.6641,4.6679,4.6733,4.6721,4.6777,4.6818,4.6828,4.6899,4.6929,4.6982,4.7058,4.7093,4.7083,4.7204,4.717,4.7174,4.7179,4.7224,4.7234,4.7243,4.7126,4.7126,4.7125,0,0,4.6544,4.6582,4.6639,4.6678,4.6736,4.6763,4.6777,4.6836,4.6857,4.6928,4.6938,4.6987,4.7077,4.7117,4.7148,4.7225,4.7229,4.7241,4.7271,4.7316,4.7325,4.7332,4.7362,4.7372,4.7247,4.7247,4.7247,0,4.6557,4.6639,4.6667,4.6725,4.6761,4.6775,4.6833,4.6869,4.694,4.6965,4.6953,4.7071,4.7107,4.7194,4.7213,4.7237,4.7256,4.7234,4.7321,4.7329,4.7337,4.7366,4.7377,4.7249,4.7249,4.7248,4.7248,0,4.6653,4.671,4.6749,4.6821,4.6861,4.6918,4.6956,4.6993,4.7006,4.7035,4.711,4.7155,4.7218,4.7239,4.7252,4.7329,4.7322,4.7315,4.7294,4.7347,4.7375,4.7387,4.725,4.725,4.725,4.7249,0,0,4.6708,4.6797,4.6811,4.6846,4.6912,4.6957,4.7016,4.708,4.7112,4.7161,4.7213,4.7292,4.7288,4.7324,4.7341,4.738,4.7442,4.737,4.7372,4.7384,4.7534,4.754,4.7552,4.7445,4.7448,4.7449,4.753,0,4.6775,4.6883,4.6911,4.7003,4.7058,4.7073,4.7126,4.7173,4.7202,4.7252,4.7284,4.7341,4.7329,4.7352,4.7391,4.7426,4.7473,4.7421,4.7495,4.7498,4.7483,4.7566,4.7572,4.7646,4.7541,4.7543,4.7544,0,4.6867,4.6922,4.702,4.7083,4.7107,4.7153,4.7216,4.7264,4.7318,4.7337,4.7379,4.7394,4.7458,4.7433,4.7523,4.7487,4.7519,4.7541,4.7544,4.7554,4.7525,4.758,4.767,4.7682,4.7561,4.756,4.7559,0,4.6902,4.6999,4.7071,4.71,4.7174,4.7207,4.724,4.7292,4.733,4.7384,4.741,4.747,4.7503,4.755,4.7581,4.756,4.7669,4.7646,4.7688,4.7687,4.7711,4.7709,4.781,4.7728,4.7728,4.7728,4.7728,0,4.6975,4.7035,4.7088,4.7133,4.7201,4.7234,4.73,4.7333,4.7381,4.7433,4.7449,4.7497,4.7534,4.7588,4.7612,4.7685,4.7699,4.7716,4.7723,4.7716,4.7715,4.7739,4.7735,4.7731,4.773,4.773,4.7729,0,4.7025,4.7063,4.7143,4.7209,4.7226,4.7274,4.733,4.7375,4.7405,4.7471,4.7488,4.7536,4.7601,4.7637,4.7716,4.7733,4.7815,4.7817,4.7797,4.78,4.7841,4.7838,4.7962,4.7982,4.7885,4.7886,4.7886,0,4.707,4.7117,4.7188,4.7225,4.7259,4.7317,4.7357,4.7391,4.7432,4.75,4.7536,4.7602,4.7657,4.7759,4.7801,4.7863,4.7869,4.7908,4.7878,4.7872,4.7873,4.7871,4.7877,4.7914,4.7915,4.7915,4.7916,0,4.7147,4.7164,4.7221,4.7286,4.7333,4.7385,4.7437,4.7466,4.7509,4.7554,4.7621,4.7664,4.7748,4.7814,4.788,4.7914,4.7923,4.7925,4.7939,4.7934,4.7922,4.7932,4.7814,4.7922,4.7922,4.7921,4.7921,4.7921,4.7198,4.7242,4.73,4.7364,4.7407,4.7456,4.7502,4.754,4.7597,4.7669,4.7686,4.7758,4.7814,4.7904,4.794,4.7997,4.799,4.8008,4.8013,4.8018,4.8021,4.7911,4.8009,4.8008,4.8008,4.8008,4.8008,0,4.7278,4.7317,4.7376,4.7449,4.75,4.7506,4.7564,4.7606,4.767,4.7722,4.7776,4.7855,4.792,4.7969,4.8035,4.8072,4.8078,4.8089,4.8087,4.8096,4.8022,4.8006,4.8083,4.8083,4.8083,4.8083,4.8083,4.8083,4.7326,4.7402,4.7427,4.7526,4.7564,4.7636,4.767,4.7715,4.7758,4.7846,4.7901,4.7932,4.7984,4.8055,4.8116,4.8128,4.8153,4.8164,4.8177,4.8108,4.81,4.8093,4.8077,4.8168,4.8168,4.8246,4.8247,4.8247]}]]